Wind_Speed
102 106 108 109 108 106 104 99 90 83 81 80 81 81 74 68 65 62 56 47 42 45 51 53 54 54 53 55 61 68 72 75 74 70 64 60 58 56 57 56 54 52 50 47 43 40 38 37 36 35 35 37 38 38 37 36 37 39 40 42 44 46 48 48 48 48 47 46 46 45 44 43 41 38 38 38 37 36 35 36 38 40 41 42 42
101 103 106 108 109 108 105 100 92 86 84 84 85 84 79 71 66 62 60 54 48 49 53 55 56 56 54 53 53 55 60 66 68 66 60 56 56 58 59 56 54 53 52 51 48 45 42 39 38 39 39 39 41 42 41 40 39 38 38 40 42 44 46 46 46 46 45 45 44 43 42 41 40 38 38 38 37 37 37 38 40 41 41 42 43
100 101 104 107 108 108 107 103 95 89 89 90 89 86 80 72 68 65 62 59 54 55 56 54 58 61 58 56 54 52 54 58 61 61 58 56 58 60 59 54 49 48 48 47 45 44 43 41 40 42 41 40 42 42 42 41 39 37 37 38 40 42 43 44 45 45 45 44 42 39 39 39 38 38 39 39 38 39 39 40 41 42 42 43 44
100 101 103 106 107 107 108 107 100 94 95 96 93 90 83 76 73 69 64 59 55 58 61 58 59 61 59 58 56 53 55 59 61 60 58 58 59 59 57 51 47 44 43 43 41 40 42 41 40 42 40 40 42 42 42 40 38 38 37 37 38 40 41 42 43 43 43 42 39 36 36 37 37 38 39 39 39 40 40 41 42 43 43 43 43
101 101 102 104 107 107 107 109 105 99 99 100 98 95 87 79 76 72 66 60 54 58 66 67 62 60 60 62 60 56 56 57 60 61 60 60 61 59 56 54 51 46 43 44 42 39 40 40 39 39 39 41 42 42 41 38 37 38 35 33 35 39 41 42 41 42 41 40 38 36 35 36 37 37 37 38 39 40 41 42 43 44 43 43 42
99 101 100 101 105 108 108 110 110 105 102 102 100 98 92 84 80 76 69 63 59 61 67 70 67 63 63 65 64 61 58 54 56 63 65 64 62 61 59 56 56 53 49 48 46 42 42 42 41 39 39 42 44 44 41 38 37 38 35 33 35 40 44 44 42 42 42 41 39 38 37 37 36 36 36 36 37 39 41 42 44 44 44 44 42
96 99 100 100 103 108 109 111 114 111 106 103 101 99 96 92 87 78 69 65 65 67 68 69 70 69 68 66 64 64 63 54 50 59 65 64 61 62 64 61 58 56 53 51 50 47 47 48 47 43 41 46 49 47 43 41 39 39 41 41 41 44 47 46 45 44 44 44 42 40 40 39 37 37 36 36 36 38 40 43 44 44 44 44 43
93 96 99 100 101 106 111 112 115 116 111 106 104 100 97 96 94 84 73 68 70 73 73 73 74 74 72 68 62 61 65 61 53 53 59 62 61 63 66 65 62 59 56 55 55 53 53 53 52 49 47 48 49 48 46 45 44 45 47 48 49 50 50 48 47 46 46 47 45 42 40 39 38 37 37 37 38 38 39 42 45 45 44 45 45
89 93 96 100 102 104 110 113 115 119 117 111 107 102 98 97 97 91 82 77 77 78 79 79 79 79 77 73 66 60 61 66 65 61 60 62 63 64 67 67 65 62 59 59 59 58 58 56 52 50 49 47 46 48 49 47 47 51 52 53 56 58 56 52 49 48 48 49 49 45 43 41 40 39 38 39 40 41 41 42 44 45 45 46 47
84 90 94 98 102 103 107 112 115 118 120 118 112 106 101 99 99 97 91 85 84 84 83 83 83 83 81 78 73 66 61 63 70 71 68 65 62 63 66 68 68 64 61 61 60 60 60 59 53 48 47 45 43 46 49 50 52 56 58 59 62 63 63 59 53 50 49 50 52 51 48 48 46 43 43 43 42 42 44 44 44 43 43 46 48
76 86 92 96 100 102 104 109 115 117 119 121 119 114 110 106 102 100 97 91 86 83 81 80 81 81 78 73 71 70 65 61 65 70 72 70 67 65 64 65 67 66 63 61 60 60 61 62 59 54 51 50 47 48 52 57 61 63 63 66 67 67 68 63 56 52 51 51 53 54 54 53 50 47 48 48 45 44 45 45 45 42 42 45 47
67 78 89 94 98 101 103 106 112 116 118 119 121 121 120 116 109 104 101 96 90 83 77 73 73 76 76 71 68 71 71 66 64 68 72 75 76 74 70 68 69 70 67 63 60 61 62 63 65 64 62 61 58 55 57 63 67 68 69 71 72 72 71 67 58 54 53 52 53 54 56 56 53 50 49 50 48 46 45 45 44 41 41 43 46
61 70 82 92 95 98 101 103 107 112 116 117 118 120 121 120 116 110 105 100 94 87 78 72 70 74 78 75 70 71 76 75 71 69 72 77 80 81 80 78 77 76 72 66 61 60 62 62 64 66 68 68 66 64 64 67 70 73 75 75 75 75 74 70 62 58 57 56 55 55 56 57 55 52 49 49 49 46 43 43 42 40 40 42 43
55 63 75 86 93 95 98 101 103 108 113 115 117 117 117 116 115 113 109 103 95 89 83 77 73 74 79 80 75 71 75 77 73 67 67 70 73 77 80 79 78 75 71 66 63 63 63 63 64 65 68 69 69 69 70 72 74 76 76 76 76 76 75 72 68 66 66 62 59 59 59 58 57 54 49 47 45 41 37 37 37 38 39 39 40
50 57 68 79 88 93 96 98 101 104 108 113 115 115 114 112 110 111 111 105 97 91 86 80 75 76 81 85 81 75 75 77 73 67 66 64 63 68 73 76 75 74 72 71 70 70 68 67 68 71 74 74 74 73 74 76 77 78 76 75 75 75 75 74 73 73 71 67 63 63 62 59 57 56 51 46 41 36 33 34 37 39 38 37 38
44 51 62 72 82 90 94 96 99 102 105 109 113 113 113 111 109 110 111 107 100 94 89 81 74 75 81 85 82 75 75 78 75 68 65 62 59 61 65 68 67 66 69 73 73 73 74 75 78 81 83 82 80 79 79 78 78 78 78 77 77 76 76 77 76 74 73 70 67 65 64 61 59 57 54 49 45 42 40 40 41 41 39 38 39
40 46 55 66 75 84 91 93 96 99 103 107 110 112 113 112 111 111 113 110 103 98 93 85 77 74 78 82 80 74 73 78 79 74 67 61 60 60 60 60 58 57 61 68 69 69 71 75 79 81 82 84 84 83 83 82 82 82 82 81 79 78 79 80 79 75 73 70 66 64 64 63 61 59 57 54 52 51 50 50 50 47 43 42 42
35 41 50 59 68 78 87 91 94 97 101 104 108 110 112 113 113 112 112 111 107 102 98 93 87 82 81 83 83 79 76 77 80 81 74 66 64 65 65 63 60 59 61 65 65 65 65 65 65 65 68 73 78 82 85 87 87 85 82 81 80 79 81 83 81 76 72 68 65 64 65 64 63 62 60 58 57 55 55 56 57 52 47 45 44
30 36 44 53 62 72 81 88 91 94 98 102 106 109 112 114 114 113 112 111 108 104 101 98 95 91 89 90 91 88 83 80 80 82 79 74 70 68 68 67 64 62 63 63 61 62 64 62 59 58 59 62 67 76 83 87 87 84 78 75 76 80 84 86 82 76 71 67 65 64 64 64 65 66 64 62 60 59 59 57 55 52 48 46 47
25 32 39 48 57 66 76 84 88 92 96 100 103 107 110 113 114 113 111 110 106 102 100 99 98 97 96 97 99 98 93 88 85 84 82 78 73 72 73 71 67 63 63 61 58 56 57 57 57 59 61 61 63 72 82 86 85 83 78 71 71 80 86 86 81 74 70 69 69 68 66 65 66 66 65 64 62 62 62 59 55 52 50 48 48
21 27 35 43 52 60 71 80 85 89 92 97 101 104 107 111 113 112 111 110 106 102 100 98 99 101 103 103 103 101 96 90 87 86 87 83 76 73 75 75 71 69 66 62 60 58 57 57 58 59 61 61 61 67 77 83 82 81 81 77 78 84 89 86 80 73 70 71 72 71 70 69 69 68 67 66 66 66 66 64 60 57 54 51 50
18 24 31 39 48 56 65 75 82 87 90 94 98 101 104 107 111 111 111 112 109 105 101 98 97 100 104 104 103 102 98 92 87 87 90 88 77 69 69 70 70 72 71 65 60 59 59 58 58 59 62 63 63 65 71 78 78 77 81 83 84 86 87 84 76 69 68 72 73 71 70 71 73 73 72 72 71 71 69 68 66 64 61 57 55
16 22 29 36 45 52 61 70 79 85 88 92 96 99 101 103 106 110 112 114 114 111 106 103 101 100 100 101 103 104 101 97 92 90 91 90 80 68 64 65 69 72 74 69 65 64 65 64 62 63 64 63 64 64 66 70 72 72 73 77 80 82 82 80 78 73 70 71 70 68 69 72 75 77 77 76 74 73 73 70 68 68 67 63 60
15 20 27 34 42 49 57 65 74 81 86 90 94 97 100 101 103 107 111 115 116 116 113 111 108 101 97 98 101 103 102 99 96 95 94 91 84 73 67 68 71 73 73 72 70 71 72 72 72 70 66 63 61 59 60 63 64 63 64 68 72 74 74 75 77 77 74 72 71 69 70 73 76 77 78 79 77 76 76 74 71 71 70 67 63
14 18 24 32 40 47 54 61 69 77 83 88 91 95 98 100 101 104 108 112 116 116 116 116 111 103 98 98 100 101 101 97 96 97 98 97 91 83 77 73 73 73 70 68 68 69 69 72 74 72 67 65 64 62 62 64 64 64 68 72 74 76 76 76 76 76 75 74 73 73 74 75 76 77 78 80 80 80 79 78 74 73 73 71 66
13 16 21 27 35 43 51 58 66 74 80 85 89 92 95 98 100 102 104 108 112 115 116 116 113 108 104 100 99 101 103 102 99 99 101 104 103 99 92 85 79 75 70 67 65 65 64 64 67 69 68 68 67 64 61 60 59 60 64 68 71 74 75 77 78 78 78 80 80 81 80 79 79 79 80 82 84 84 83 81 78 76 76 75 69
13 14 18 23 29 37 45 53 61 69 77 83 88 91 93 95 97 99 101 103 107 111 114 115 113 111 108 103 98 97 100 104 106 106 105 107 109 109 105 97 89 83 78 74 71 69 67 65 65 68 69 68 64 60 56 54 54 53 52 54 57 58 59 63 66 67 70 75 80 82 83 81 79 80 81 84 86 87 86 84 80 78 78 77 73
15 15 17 20 25 31 39 47 55 63 71 79 85 90 92 94 95 97 99 100 103 106 110 113 113 111 110 108 103 98 97 100 104 108 110 111 112 113 112 107 99 92 88 83 80 78 76 74 73 73 72 69 63 60 59 60 60 56 51 49 51 53 54 56 60 63 66 68 70 71 74 76 78 80 83 85 86 87 87 86 84 82 81 79 76
17 17 19 21 23 27 33 40 49 57 64 72 79 85 89 92 94 96 99 100 102 103 104 108 110 110 110 110 108 106 104 102 102 104 107 110 112 113 114 112 105 98 93 89 87 85 82 79 79 79 77 72 67 63 63 65 65 62 57 53 53 56 60 63 67 71 74 73 72 72 75 80 85 89 90 88 87 87 87 86 86 85 84 83 79
19 19 19 21 23 25 29 35 41 49 56 64 71 78 84 88 91 93 96 98 100 101 102 103 105 107 109 110 109 108 108 107 106 104 104 106 108 109 111 110 107 103 98 94 90 88 84 82 83 83 80 74 70 68 71 73 74 74 71 66 61 60 63 69 74 77 78 78 79 82 86 91 94 93 91 89 88 88 88 87 86 86 86 85 84
22 21 20 21 23 24 27 30 35 40 47 55 63 70 77 83 87 90 92 95 97 99 100 100 101 103 106 109 110 110 110 110 110 108 106 106 107 107 109 110 109 106 104 100 95 91 87 86 87 87 83 79 76 74 75 77 79 81 82 82 81 80 80 83 85 87 88 90 91 93 95 96 94 92 89 89 89 89 89 88 87 86 86 86 85
26 25 22 22 23 25 27 29 32 35 40 45 53 61 68 76 82 86 89 92 94 97 98 99 100 101 104 107 111 113 114 113 112 111 110 109 108 107 108 110 111 110 107 104 100 95 91 90 92 92 89 87 85 83 81 81 83 86 88 91 93 95 97 99 99 98 98 96 94 93 92 92 91 91 90 89 89 89 89 89 88 87 86 86 85
29 28 26 25 24 26 27 29 31 34 37 40 45 51 59 66 74 80 85 88 91 94 96 98 99 101 103 106 110 114 117 116 114 113 112 112 111 108 107 109 112 112 111 107 104 100 97 96 97 98 98 96 94 91 90 89 91 93 94 96 97 98 100 102 101 99 95 92 89 88 87 88 89 89 90 90 90 89 89 89 89 89 88 86 86
31 31 31 29 28 27 28 30 32 34 36 39 42 46 52 58 65 72 78 83 88 91 93 95 98 101 103 105 108 112 115 117 116 116 115 115 114 112 109 109 111 112 112 111 108 105 103 102 102 104 105 104 101 97 94 93 95 98 99 100 101 102 102 100 97 94 91 90 90 91 91 92 92 90 89 89 90 90 90 90 89 89 88 87 87
34 33 33 34 33 31 30 30 32 34 36 39 41 44 48 53 58 64 70 76 82 87 91 93 96 98 101 104 106 108 110 112 114 116 117 118 118 116 113 113 113 114 113 112 111 109 108 107 107 107 108 109 108 106 103 101 101 102 104 105 105 104 103 101 99 97 95 94 94 95 96 96 93 90 88 88 88 89 90 90 90 89 89 88 88
35 35 35 36 37 36 34 33 33 35 36 37 39 41 43 46 50 55 60 66 72 78 84 89 92 95 98 101 104 106 107 109 111 113 115 117 118 119 118 117 116 116 115 113 113 113 112 112 113 113 113 113 113 114 114 113 110 109 110 111 112 110 108 106 105 103 101 99 98 99 98 96 92 89 88 89 90 91 91 91 91 91 90 90 89
35 36 36 37 38 39 39 38 37 37 37 37 38 38 39 40 43 46 50 55 60 66 72 78 83 88 93 97 100 103 106 107 109 112 114 114 116 119 122 122 121 120 118 117 117 118 117 116 117 118 119 120 120 121 122 122 122 121 120 120 121 121 119 117 115 113 110 106 103 101 99 96 93 91 91 91 92 93 93 92 91 91 92 94 94
31 35 37 37 38 39 41 41 41 41 41 40 39 39 38 39 39 41 43 45 49 53 58 63 69 74 81 87 94 99 103 106 108 110 113 115 115 116 120 124 126 125 123 121 121 121 121 120 121 121 122 123 124 124 125 126 128 129 129 129 129 130 129 128 127 124 120 116 111 107 103 100 96 93 93 94 96 97 97 95 93 93 94 96 97
27 30 34 36 37 39 41 42 43 44 44 44 43 43 42 41 41 41 41 42 44 46 49 53 56 60 65 71 79 86 93 99 104 108 112 115 117 118 119 123 127 129 128 126 125 125 125 125 125 126 127 127 128 128 129 130 131 132 133 134 134 133 132 132 131 130 127 124 120 116 113 110 105 100 97 99 101 103 103 102 101 101 101 101 102
25 27 29 32 35 37 39 41 43 45 46 46 47 46 46 45 45 45 45 45 45 46 47 49 51 52 55 58 64 70 77 84 92 99 105 110 116 119 121 124 127 131 134 133 132 131 130 130 129 130 130 131 132 133 133 134 134 135 136 137 136 135 134 133 131 130 129 127 126 124 123 122 119 114 110 109 110 112 114 114 113 113 113 112 110
25 26 27 29 31 33 35 38 41 44 46 47 48 49 49 49 49 48 49 49 49 48 48 49 50 51 52 53 56 59 64 69 75 82 89 97 104 111 117 122 126 131 135 138 139 138 138 137 137 137 137 137 137 138 137 137 136 137 138 139 139 139 138 137 136 135 134 133 132 132 131 129 128 126 124 123 123 123 124 124 124 124 122 119 116
25 25 26 27 29 31 32 34 37 40 43 45 47 49 51 51 51 51 51 51 52 52 51 50 51 52 52 52 53 55 57 60 63 66 71 77 85 93 101 109 116 122 128 134 138 141 143 144 145 145 145 145 145 144 144 144 143 143 143 144 144 143 141 141 141 140 140 139 138 137 136 135 135 134 135 134 134 133 132 130 129 127 124 122 118
25 25 25 26 27 28 30 32 33 35 39 42 44 47 49 51 52 52 52 52 52 52 52 52 52 52 52 52 52 53 54 56 58 60 61 64 68 73 80 87 95 103 110 117 124 130 135 138 141 142 143 144 144 145 147 148 148 147 146 147 147 147 145 145 144 144 144 143 142 140 139 139 140 141 142 142 140 137 134 131 129 126 124 122 119
26 26 25 25 26 26 28 29 31 32 34 37 40 43 46 48 50 52 53 54 54 53 53 52 52 52 53 52 52 52 53 54 55 57 58 59 60 62 65 69 74 81 87 94 101 107 114 119 125 129 133 136 138 140 142 143 145 146 147 147 148 149 148 147 147 146 146 145 144 143 143 144 145 146 145 142 139 135 132 130 127 125 122 120 118
25 25 26 26 26 26 26 27 28 30 31 33 36 39 42 45 47 49 51 52 53 54 54 54 54 53 54 54 53 53 54 54 55 55 56 57 58 59 60 61 63 66 70 74 79 84 90 95 101 107 113 119 124 129 133 136 139 142 144 146 148 149 150 150 150 149 149 149 148 148 148 147 145 143 140 137 134 132 130 127 124 122 120 119 117
23 24 25 25 25 25 26 26 26 27 28 29 31 34 37 40 44 47 49 50 51 51 52 54 54 55 55 55 56 55 55 56 56 56 56 56 56 57 57 58 59 60 61 63 65 67 70 74 78 83 89 94 100 106 112 117 122 127 132 136 139 142 145 147 148 149 149 149 149 147 145 143 140 137 135 132 130 128 126 124 121 119 118 116 115
22 22 23 24 25 25 25 25 26 26 26 27 28 30 32 35 39 42 46 48 50 50 50 51 52 53 54 55 56 56 56 56 57 58 58 58 57 56 56 56 57 58 58 59 59 60 61 62 64 66 69 73 77 82 87 92 97 102 107 112 117 121 125 129 132 134 136 138 138 138 136 135 133 131 129 128 126 124 122 120 118 116 114 113 112
24 23 23 23 24 25 25 26 26 26 26 27 27 28 29 31 34 36 40 44 47 49 50 51 51 52 53 53 54 55 55 55 56 57 58 58 58 58 57 57 57 57 57 58 58 58 58 58 59 59 60 61 63 65 68 72 75 79 83 87 91 95 99 104 108 111 115 118 120 122 123 123 123 123 122 121 120 119 118 116 115 113 112 111 110
27 27 26 25 25 25 26 26 27 27 28 28 28 29 29 29 31 32 35 38 41 44 47 49 51 52 53 54 55 55 55 55 56 56 57 58 58 59 59 59 58 58 58 57 57 57 57 57 57 58 58 59 59 60 61 62 64 66 68 71 74 77 80 84 88 91 95 98 101 104 106 107 109 110 111 111 111 111 111 110 110 109 108 107 107
29 30 30 30 29 28 28 28 28 29 29 29 30 30 30 31 31 32 33 34 36 38 41 44 47 49 51 53 55 56 56 57 57 58 58 58 59 59 60 60 61 60 60 60 59 59 59 59 59 59 59 59 60 60 61 62 62 63 64 65 66 68 70 72 75 78 81 84 86 88 91 93 95 96 98 99 100 100 101 102 102 102 102 102 102
31 31 32 32 33 33 32 31 31 31 31 31 32 32 32 32 33 33 34 34 35 36 38 40 42 44 46 48 51 53 55 56 57 58 59 60 60 61 61 62 63 64 64 64 64 63 63 63 63 62 62 62 62 62 63 63 64 65 65 66 66 67 68 69 70 71 73 74 76 78 79 81 83 85 86 88 89 90 91 92 92 93 93 94 94
Wind_Direction
214 213 214 215 215 216 218 217 216 214 212 211 210 209 212 213 214 216 216 218 221 224 229 236 242 247 249 251 252 254 256 257 258 259 256 252 251 251 251 254 257 260 263 266 266 263 261 259 260 264 269 268 265 269 276 280 280 279 279 279 279 281 284 287 290 294 297 300 302 303 303 303 301 300 301 301 302 303 303 304 307 310 316 323 328
216 213 213 214 214 215 216 215 214 213 210 208 208 209 210 211 213 214 214 215 218 222 228 232 234 236 238 241 245 250 255 257 254 252 250 248 248 250 251 254 258 261 263 265 264 261 259 258 258 263 267 266 264 267 272 277 279 281 284 284 284 285 286 289 291 294 297 299 300 300 299 299 300 301 302 302 301 301 303 304 306 310 314 320 325
219 215 213 213 214 214 215 214 212 210 208 206 206 208 209 210 213 212 210 212 215 218 223 229 234 236 235 234 236 240 249 252 250 248 247 246 247 250 253 257 262 264 265 266 267 264 258 255 257 262 264 263 263 266 271 274 275 280 287 289 290 291 292 292 293 294 296 297 296 295 295 297 299 302 303 303 302 301 302 304 306 309 313 318 322
221 217 214 213 213 213 214 213 211 209 207 206 205 207 207 209 213 211 208 211 218 221 220 222 230 237 237 234 230 231 239 247 249 248 247 247 248 251 254 256 260 263 265 267 269 267 261 256 257 260 262 262 263 266 270 271 273 281 288 291 294 297 297 296 295 295 295 296 294 290 291 294 297 300 302 303 302 301 302 303 304 307 311 314 318
222 220 216 213 212 212 212 212 210 208 207 206 205 207 207 207 211 211 209 212 221 227 225 222 224 230 234 231 226 225 231 240 248 249 248 251 251 251 253 253 254 258 263 265 263 261 261 262 262 264 265 264 265 268 268 267 275 284 288 293 301 304 303 300 297 295 294 296 294 287 286 290 293 295 299 301 302 301 302 302 302 305 308 311 314
223 221 219 214 212 212 211 211 210 208 207 206 206 207 208 207 209 211 213 215 219 224 225 224 222 224 228 228 224 224 227 234 247 251 252 253 253 253 256 255 254 256 260 263 262 258 259 262 265 269 272 272 272 271 267 267 277 285 286 290 299 305 306 304 301 296 293 295 295 289 286 287 288 290 294 297 300 301 301 302 302 303 306 308 311
223 222 221 217 213 211 211 211 210 209 208 207 207 208 209 209 208 210 214 216 219 222 222 221 222 222 224 225 224 227 228 229 240 249 250 252 254 259 261 259 256 257 257 258 260 260 260 260 261 265 270 275 276 272 267 267 275 283 285 286 291 299 303 304 303 298 291 291 293 290 290 290 288 287 289 292 295 298 300 301 301 303 304 305 308
223 222 221 219 216 212 211 211 211 210 210 208 208 207 208 209 208 209 213 215 218 221 219 219 222 223 224 225 226 228 230 229 233 241 247 253 258 261 262 260 258 259 258 256 255 259 261 260 260 260 263 270 273 271 268 269 274 281 284 284 289 297 300 300 302 300 293 290 291 289 290 293 292 291 290 291 293 295 297 298 299 301 303 304 306
223 222 221 220 218 214 211 210 211 211 211 209 208 207 207 208 209 210 214 215 217 220 220 220 224 225 225 227 227 227 230 233 237 241 247 255 259 259 260 260 260 261 261 258 255 255 257 259 260 258 258 262 268 269 269 270 276 281 283 285 290 296 298 297 299 300 295 291 291 290 288 288 290 292 294 294 294 295 294 294 295 298 302 304 304
223 221 221 220 219 216 212 211 210 211 211 211 210 208 207 209 211 212 214 216 218 220 222 224 227 228 228 229 229 230 232 238 241 243 246 252 257 259 259 260 261 261 262 261 259 257 254 255 256 254 252 258 266 267 266 270 276 279 280 284 289 294 295 294 295 298 297 292 290 291 288 285 285 289 295 296 296 295 293 291 292 295 299 301 302
224 221 220 219 219 217 214 211 210 211 212 212 212 211 210 211 214 215 216 217 217 219 222 225 227 227 227 228 230 230 231 237 242 244 244 247 252 257 258 258 259 261 262 263 263 260 255 252 253 252 253 259 266 264 262 267 273 276 278 283 287 291 292 292 292 297 299 294 290 290 289 286 285 288 293 295 295 293 291 289 290 293 297 299 300
225 221 219 219 218 218 216 213 211 210 211 212 213 214 215 215 216 218 218 217 216 216 220 224 226 226 224 224 227 228 227 230 236 242 246 247 249 253 255 256 259 262 265 267 266 263 259 254 253 254 256 260 264 263 261 263 268 272 277 282 285 287 289 290 290 295 299 297 293 290 288 286 286 288 291 293 294 293 290 288 289 293 295 296 297
226 221 219 218 218 217 216 214 212 210 211 212 213 214 216 217 217 218 218 218 216 216 219 223 225 225 224 222 224 226 225 226 229 235 243 247 249 250 252 255 259 262 265 268 269 268 265 262 260 259 259 261 263 264 265 266 269 272 277 281 283 284 286 287 287 290 295 297 294 291 288 285 286 287 289 292 295 294 291 290 292 295 294 294 296
228 222 219 218 217 216 216 215 213 211 210 211 212 214 216 217 217 217 217 217 216 217 219 222 222 222 223 221 222 224 225 224 225 228 235 243 248 251 252 254 257 261 263 266 270 272 271 270 270 269 268 267 268 269 270 271 272 274 277 279 281 282 284 284 284 286 290 292 292 291 289 286 285 285 288 293 296 294 293 297 300 299 297 296 298
231 224 219 217 216 215 215 214 213 212 210 210 212 213 215 215 215 216 216 216 216 217 218 218 217 218 219 219 220 224 224 222 222 224 228 235 244 250 252 253 255 258 262 265 269 272 271 271 273 275 275 275 275 274 273 273 273 275 277 279 280 281 283 283 284 286 288 288 289 290 290 287 284 284 286 291 294 292 293 300 302 302 302 302 301
233 225 220 217 215 214 214 213 213 212 210 210 211 212 213 214 214 214 214 214 215 216 217 216 213 213 215 216 218 222 224 223 222 223 225 229 236 244 251 255 256 257 259 262 265 268 269 269 272 273 274 275 276 276 275 274 275 276 279 281 281 283 284 284 284 285 286 286 288 289 288 286 284 283 284 288 290 287 288 294 297 301 306 306 303
234 226 221 218 215 214 213 213 212 211 211 210 210 211 212 213 213 213 212 212 212 214 216 215 212 210 212 215 216 218 221 223 223 223 223 225 227 231 238 247 250 250 251 253 257 261 266 270 272 273 273 273 274 274 275 275 275 277 280 281 282 283 282 282 282 284 285 285 286 287 288 287 283 281 282 286 287 285 286 289 291 296 303 305 304
235 226 220 218 215 213 212 212 211 211 211 210 210 210 211 212 213 213 212 211 210 211 215 216 213 212 214 216 218 218 218 220 221 222 225 227 226 227 230 234 236 237 241 245 247 250 257 264 268 271 272 272 272 272 273 274 275 277 280 281 281 281 280 280 281 283 284 284 284 285 287 286 284 281 280 282 283 283 285 287 288 290 297 302 304
234 226 219 216 214 211 211 211 211 210 211 211 210 210 210 211 213 213 211 211 210 210 214 217 215 214 217 219 220 220 219 220 219 221 225 229 229 231 233 232 231 232 235 239 241 242 246 252 257 261 263 265 269 272 274 275 275 278 282 284 282 280 277 277 280 283 284 283 283 283 284 284 283 281 279 278 279 280 281 283 286 288 293 299 301
233 224 218 214 212 210 209 210 211 211 211 211 211 211 211 211 212 212 211 210 211 210 212 216 216 215 217 220 221 221 222 224 225 225 226 227 228 232 233 231 231 233 234 235 235 237 241 245 249 253 257 261 265 269 272 275 276 278 281 281 278 276 275 275 279 282 283 282 280 280 280 280 279 278 277 276 275 275 276 279 283 287 291 294 295
231 222 216 213 210 208 207 208 209 210 211 212 212 212 212 211 212 213 210 209 211 211 211 215 216 215 216 218 220 220 222 226 228 227 226 227 230 233 231 227 228 231 233 234 233 233 237 241 245 251 257 262 263 263 266 270 273 275 275 273 270 271 273 275 278 280 281 280 278 278 278 277 275 275 275 275 275 274 274 276 280 284 286 287 290
229 219 213 210 208 206 206 206 207 209 211 212 213 213 213 213 212 213 211 209 210 211 212 214 216 216 216 218 220 220 222 226 228 225 225 227 231 233 229 225 225 229 232 235 235 235 237 241 246 253 258 262 263 262 264 267 269 271 271 269 268 268 271 274 276 277 277 277 277 277 276 274 273 273 273 275 277 277 276 275 277 279 279 281 286
226 216 211 207 205 205 205 205 206 208 210 212 213 214 215 214 213 213 212 211 211 212 214 216 218 218 218 219 220 221 223 226 227 223 222 226 231 234 233 228 227 230 233 235 237 240 243 244 247 253 258 263 266 266 264 265 266 267 267 266 266 267 269 272 273 273 274 275 275 275 273 271 271 272 273 275 276 278 278 276 276 277 277 279 282
225 216 210 207 204 204 204 204 206 208 209 211 213 214 215 215 215 214 214 213 214 214 216 218 219 220 220 221 222 222 223 225 226 223 222 225 231 236 236 233 232 234 235 236 239 243 246 248 249 253 259 265 265 260 257 260 263 265 267 267 269 270 271 273 273 272 271 272 272 273 273 272 272 273 273 274 276 278 279 278 277 277 276 277 279
228 218 212 208 205 204 203 204 205 207 209 211 213 214 215 216 216 216 215 215 216 217 218 220 220 220 222 224 224 224 223 224 224 222 222 225 229 232 233 234 236 237 236 236 240 243 246 248 249 250 255 261 261 257 257 261 264 267 270 272 272 273 274 275 274 273 272 270 271 273 273 272 272 273 273 274 275 277 278 278 277 276 276 276 277
230 222 216 211 208 206 205 205 205 206 208 211 213 215 216 216 217 217 217 216 217 218 219 221 221 221 223 226 227 227 226 226 226 225 224 226 229 231 233 235 238 239 237 236 238 241 242 244 245 247 252 258 260 260 261 263 265 268 273 275 276 276 276 276 276 275 274 271 270 271 271 270 270 271 273 274 275 276 277 276 276 275 275 276 277
234 223 218 214 211 210 209 208 208 208 208 210 212 214 216 218 218 219 219 218 218 219 220 221 222 222 223 224 226 227 228 229 229 229 228 229 231 232 234 236 239 241 241 238 238 239 240 240 240 243 247 251 254 253 250 249 252 256 261 268 272 274 275 277 277 275 272 271 270 269 269 269 270 270 272 273 275 276 276 275 275 274 274 275 277
246 230 220 215 211 211 211 210 211 211 210 211 212 213 215 217 218 219 220 221 220 221 221 222 223 223 224 225 226 228 230 231 231 230 230 232 233 234 235 237 239 241 241 240 240 240 241 240 238 239 240 241 244 244 241 239 240 241 245 252 257 257 258 262 265 264 264 266 268 267 266 268 270 272 273 273 274 274 274 274 274 274 273 274 275
256 242 228 219 214 212 212 212 212 213 213 213 214 214 215 216 217 218 220 221 222 222 222 223 223 224 225 226 227 229 231 232 232 231 231 232 234 235 236 237 238 239 240 240 240 240 241 241 239 238 239 239 239 239 238 238 237 237 239 243 245 247 249 250 252 255 257 259 262 265 266 269 273 275 275 274 273 273 273 273 273 273 273 273 273
259 251 240 228 220 215 214 214 214 214 215 215 215 216 216 217 218 219 220 221 222 224 224 224 224 224 225 226 228 229 230 231 232 233 233 233 234 236 236 235 236 237 239 240 240 240 241 240 237 237 238 238 236 235 236 237 238 238 240 242 243 245 247 246 245 248 251 254 257 262 267 272 275 275 274 272 272 272 272 271 271 271 271 272 272
257 255 247 236 227 220 218 217 217 216 216 217 217 217 217 218 219 220 220 222 223 224 225 225 225 224 225 226 227 229 230 231 233 234 234 235 235 236 236 235 235 236 238 239 239 240 240 238 235 235 236 235 234 234 235 237 239 241 243 245 245 246 247 246 246 248 251 255 259 264 268 272 273 273 271 271 271 271 271 271 271 270 270 271 272
250 253 250 242 234 227 222 220 219 218 217 218 218 219 219 219 220 220 221 222 223 224 225 226 226 225 225 226 227 228 230 232 233 234 234 235 236 236 237 236 235 236 237 238 239 240 240 238 234 233 235 235 235 236 236 238 241 244 245 246 247 247 247 248 250 252 255 259 263 266 269 271 271 270 269 269 269 270 270 271 271 271 271 271 271
242 246 249 247 241 234 229 226 224 222 220 219 219 219 220 220 221 221 222 223 224 224 225 226 226 226 226 226 226 227 229 231 232 233 235 235 235 236 237 237 237 237 238 238 239 239 240 238 235 233 234 236 238 239 240 242 243 244 244 245 247 248 250 251 253 255 257 260 263 266 268 270 270 269 268 268 268 269 270 270 271 271 271 271 272
242 241 243 245 245 241 236 232 230 228 226 224 221 220 220 220 221 222 223 224 224 225 226 226 226 227 227 228 228 228 229 230 231 233 234 236 236 236 237 237 238 239 239 239 239 239 238 237 235 233 233 235 238 239 240 242 244 244 245 246 249 251 252 254 254 255 257 260 263 264 267 270 270 268 268 268 269 269 270 270 271 271 271 271 272
248 245 242 242 243 243 241 238 236 234 233 232 229 227 225 223 222 223 223 225 226 227 227 227 227 228 228 229 230 230 230 230 231 232 234 235 236 236 236 236 237 238 238 239 239 238 236 235 235 234 234 234 236 238 240 242 244 245 247 248 250 251 253 254 255 256 257 260 262 265 268 269 268 267 268 269 270 270 270 271 271 271 271 271 271
251 249 246 243 243 242 242 241 240 239 239 238 237 236 234 231 229 227 227 227 228 229 229 230 230 230 230 230 231 232 232 232 232 232 233 234 235 236 236 236 236 237 237 237 237 237 236 236 235 235 236 236 238 240 242 243 244 245 246 248 248 249 251 253 255 256 258 260 262 264 266 266 265 265 268 270 271 271 271 271 271 272 272 271 271
254 252 250 247 245 245 244 242 241 241 242 243 242 241 240 237 235 233 232 231 231 231 232 232 233 233 233 233 233 233 233 234 233 234 234 235 235 235 235 235 236 237 237 237 237 237 237 237 236 236 238 240 241 243 244 245 246 246 247 248 248 249 250 251 253 255 257 258 260 262 263 262 262 263 266 268 270 271 271 270 271 272 273 274 273
256 256 254 251 248 247 247 246 245 243 243 243 243 244 243 242 238 235 234 233 232 231 232 233 234 235 236 236 236 235 235 235 235 235 235 236 236 236 235 235 236 237 238 237 237 236 237 237 237 237 238 240 242 244 246 248 249 249 249 250 250 250 251 252 253 255 256 258 259 260 259 259 260 261 263 266 269 271 271 271 270 272 274 276 276
256 257 257 256 252 249 248 248 248 248 247 246 245 244 244 244 242 240 237 235 232 231 230 231 232 233 235 236 237 238 238 238 237 237 237 237 237 237 237 236 236 236 237 238 238 237 238 238 239 240 240 241 242 244 246 248 250 251 252 252 252 253 253 254 254 255 256 257 258 258 258 258 259 261 263 265 267 269 270 270 270 271 273 275 276
256 256 257 258 257 254 251 249 249 249 249 249 249 248 246 245 244 243 242 241 237 234 232 232 232 232 233 235 236 237 238 239 239 239 239 239 238 238 238 238 237 237 237 238 239 239 239 240 241 241 242 243 244 245 246 247 249 251 252 253 254 254 255 255 256 256 257 257 258 259 259 259 259 261 263 265 267 268 269 269 270 271 272 273 274
257 257 256 257 258 258 256 253 251 250 249 248 249 250 250 249 248 247 246 245 244 240 237 236 235 235 235 236 237 237 237 237 238 239 240 240 240 240 240 240 240 239 239 239 240 240 241 243 244 245 245 246 246 247 247 248 249 251 252 253 254 255 256 256 257 257 258 259 260 261 261 260 260 261 264 266 268 269 269 269 270 271 272 272 273
261 259 258 258 259 259 259 257 255 253 251 249 248 248 249 251 251 251 250 249 248 247 244 241 240 238 238 239 239 240 240 240 240 240 240 241 241 242 242 242 242 242 242 242 242 243 244 245 247 248 248 249 249 249 249 249 251 252 253 253 254 255 255 256 257 258 259 260 261 262 262 261 262 263 265 267 269 270 270 270 270 271 271 271 271
266 263 260 259 260 260 261 260 258 256 255 253 251 249 248 249 250 251 251 251 251 251 250 247 245 243 242 241 242 242 243 244 245 245 245 244 244 244 244 244 244 244 244 244 245 245 246 247 248 249 249 250 250 251 251 251 252 253 254 254 253 254 255 256 257 258 259 260 260 261 261 262 263 265 267 268 269 270 270 269 270 270 270 270 269
270 267 264 262 261 261 261 262 261 260 257 256 254 253 252 250 249 249 249 250 251 252 252 252 250 248 247 245 245 244 244 245 246 248 248 249 249 248 247 247 247 247 246 246 247 247 247 248 249 249 250 251 251 251 252 252 252 253 253 254 254 254 255 256 257 258 259 259 260 261 262 263 265 266 267 268 268 269 269 269 269 269 269 268 268
274 270 267 265 263 262 261 261 262 262 261 259 257 255 254 253 253 252 251 250 249 249 250 251 251 251 250 249 248 247 245 244 244 245 247 249 250 250 250 249 249 249 249 249 249 249 249 250 250 251 251 252 252 252 252 253 253 253 253 254 254 254 255 256 257 258 259 259 260 261 263 264 265 266 266 267 267 268 268 268 268 268 267 267 268
280 275 271 268 265 264 263 262 262 263 264 263 262 259 257 256 255 255 255 254 252 250 249 249 249 249 249 249 249 249 247 246 245 244 245 246 248 249 250 250 250 250 250 250 250 250 250 251 251 252 252 252 253 253 253 253 254 254 254 254 255 255 256 256 257 258 259 260 261 262 262 263 264 264 265 266 266 266 267 267 267 267 267 267 267
289 283 278 274 270 267 266 265 265 265 265 265 265 264 262 260 258 256 256 257 258 256 254 253 252 250 248 247 247 247 247 246 246 245 245 246 247 248 249 250 251 251 251 251 251 251 251 251 251 252 252 252 253 253 253 253 254 254 254 255 255 256 256 257 257 258 259 259 260 261 262 262 263 263 264 264 265 266 266 266 267 267 267 267 267
292 290 287 282 277 273 271 269 269 268 267 267 266 266 265 264 262 260 259 258 259 259 259 259 258 257 255 253 251 250 249 248 247 247 247 247 248 249 249 250 251 251 252 252 252 253 253 253 252 253 253 253 253 254 254 254 254 254 255 255 256 256 257 257 258 259 259 260 260 261 261 262 262 263 263 264 265 265 266 266 267 267 267 267 267
293 291 289 287 284 279 276 272 271 270 269 269 268 267 266 265 264 264 263 261 260 260 261 261 260 260 260 260 259 258 257 256 255 253 252 252 252 252 252 252 253 253 254 254 255 255 255 255 255 255 254 254 254 254 255 255 255 255 256 256 256 257 257 258 258 259 259 260 260 260 261 262 262 263 263 264 264 265 265 266 266 267 267 267 267
295 292 290 287 285 283 279 276 273 271 270 269 268 268 267 267 266 265 265 264 264 263 262 262 262 261 261 261 261 261 261 261 260 260 259 258 258 258 258 258 258 258 258 258 258 259 259 259 258 257 257 256 256 255 255 255 255 255 255 256 256 256 257 258 258 259 259 259 260 260 260 261 261 262 262 263 264 264 264 265 265 266 266 266 266
296 294 291 288 286 283 281 278 276 273 271 269 268 268 267 267 267 266 266 265 265 265 264 264 264 264 263 263 263 262 262 263 263 262 262 262 261 261 261 261 261 261 261 261 261 261 261 261 261 261 260 259 259 258 257 257 257 256 256 256 256 256 256 256 257 257 258 259 259 259 260 260 260 261 261 262 262 263 263 263 264 264 264 264 265
Height
10543 10552 10559 10566 10573 10579 10584 10591 10600 10606 10613 10620 10628 10636 10644 10651 10656 10659 10663 10669 10674 10679 10684 10689 10689 10689 10691 10693 10694 10694 10697 10701 10704 10706 10710 10714 10717 10720 10722 10725 10726 10727 10727 10728 10729 10730 10731 10731 10732 10732 10733 10733 10733 10733 10733 10733 10733 10734 10735 10736 10736 10735 10735 10734 10734 10733 10731 10730 10728 10727 10726 10725 10724 10723 10721 10719 10718 10717 10715 10713 10710 10708 10707 10705 10704
10533 10542 10551 10557 10565 10571 10576 10584 10592 10598 10605 10611 10616 10625 10636 10643 10648 10652 10658 10663 10667 10671 10676 10680 10682 10684 10688 10693 10695 10695 10694 10695 10697 10700 10704 10708 10711 10712 10715 10718 10719 10720 10721 10722 10722 10724 10725 10726 10727 10727 10728 10728 10728 10728 10728 10729 10729 10730 10731 10732 10732 10731 10731 10731 10730 10730 10729 10727 10725 10723 10722 10721 10720 10719 10718 10717 10715 10713 10712 10710 10708 10706 10705 10703 10701
10523 10533 10540 10547 10555 10563 10569 10576 10584 10590 10595 10600 10607 10619 10629 10634 10637 10644 10651 10654 10656 10661 10667 10674 10678 10679 10683 10688 10693 10696 10695 10691 10690 10693 10697 10701 10704 10705 10708 10713 10715 10715 10716 10717 10717 10719 10720 10721 10721 10722 10723 10723 10723 10724 10724 10725 10725 10726 10727 10727 10727 10727 10728 10727 10727 10726 10725 10724 10723 10721 10719 10718 10717 10716 10715 10714 10713 10711 10709 10707 10705 10703 10701 10700 10697
10512 10520 10528 10536 10545 10554 10561 10568 10574 10581 10586 10591 10599 10609 10617 10621 10626 10634 10641 10645 10649 10654 10659 10665 10672 10677 10680 10682 10686 10691 10693 10689 10685 10686 10691 10694 10697 10701 10704 10709 10711 10712 10713 10714 10714 10714 10714 10715 10716 10716 10717 10718 10718 10718 10719 10720 10721 10722 10723 10723 10724 10724 10724 10724 10723 10722 10721 10721 10720 10719 10717 10716 10715 10714 10713 10711 10710 10708 10706 10705 10702 10701 10699 10697 10696
10499 10506 10515 10526 10535 10543 10551 10559 10565 10571 10576 10581 10590 10599 10606 10613 10618 10624 10631 10636 10642 10647 10650 10655 10663 10669 10671 10674 10678 10681 10684 10686 10683 10681 10683 10687 10690 10694 10698 10702 10705 10707 10708 10709 10711 10711 10710 10710 10711 10711 10712 10712 10712 10713 10714 10715 10716 10717 10718 10719 10719 10719 10720 10720 10720 10719 10718 10717 10717 10716 10716 10714 10712 10711 10710 10709 10707 10705 10704 10702 10699 10698 10697 10695 10693
10487 10495 10505 10515 10524 10532 10540 10547 10554 10562 10566 10572 10582 10591 10599 10605 10608 10611 10619 10625 10630 10635 10640 10646 10652 10657 10659 10663 10669 10672 10675 10682 10684 10679 10678 10680 10684 10687 10691 10696 10699 10701 10703 10704 10705 10707 10707 10706 10707 10708 10708 10708 10708 10708 10709 10710 10711 10711 10712 10714 10715 10715 10715 10716 10716 10716 10714 10714 10713 10713 10712 10712 10710 10709 10708 10707 10705 10703 10702 10700 10697 10695 10694 10692 10690
10477 10486 10495 10504 10513 10520 10528 10535 10543 10551 10557 10564 10574 10583 10589 10595 10598 10602 10608 10615 10621 10625 10632 10638 10642 10647 10651 10655 10662 10668 10671 10677 10681 10677 10674 10675 10678 10681 10684 10689 10693 10694 10697 10698 10699 10701 10702 10701 10702 10703 10704 10703 10703 10704 10704 10705 10705 10705 10706 10708 10710 10711 10712 10712 10713 10712 10711 10710 10710 10709 10708 10708 10707 10706 10706 10705 10703 10701 10700 10698 10695 10693 10691 10689 10687
10467 10474 10482 10492 10500 10508 10515 10523 10531 10540 10547 10556 10566 10573 10580 10585 10589 10593 10598 10604 10611 10617 10623 10629 10633 10640 10646 10651 10659 10667 10670 10672 10674 10673 10672 10671 10674 10677 10678 10681 10685 10688 10690 10692 10693 10695 10695 10696 10697 10698 10698 10698 10698 10699 10700 10700 10700 10700 10700 10701 10704 10706 10708 10709 10709 10708 10707 10707 10706 10706 10705 10704 10703 10702 10702 10701 10700 10699 10697 10695 10692 10689 10688 10685 10683
10456 10463 10470 10478 10486 10494 10503 10511 10520 10527 10535 10545 10555 10563 10570 10575 10578 10582 10587 10593 10601 10606 10613 10620 10627 10635 10641 10648 10657 10666 10670 10670 10669 10669 10669 10668 10670 10672 10672 10673 10676 10680 10682 10684 10686 10689 10689 10690 10691 10692 10692 10692 10693 10694 10695 10695 10695 10694 10694 10695 10697 10699 10702 10704 10705 10705 10704 10703 10702 10702 10702 10700 10699 10698 10698 10697 10696 10695 10693 10691 10688 10686 10684 10682 10679
10444 10451 10458 10464 10471 10481 10491 10500 10508 10514 10523 10534 10545 10554 10560 10563 10567 10571 10576 10585 10592 10597 10604 10611 10618 10627 10635 10645 10655 10663 10668 10669 10666 10665 10666 10665 10664 10665 10666 10666 10668 10671 10674 10677 10679 10681 10683 10684 10685 10686 10686 10687 10687 10689 10689 10690 10689 10688 10688 10689 10691 10693 10695 10698 10699 10700 10701 10700 10699 10698 10698 10696 10694 10694 10694 10693 10692 10691 10689 10687 10685 10683 10681 10678 10675
10432 10438 10445 10451 10458 10468 10478 10487 10495 10503 10513 10524 10535 10544 10548 10550 10556 10562 10568 10578 10586 10591 10597 10604 10611 10620 10631 10642 10650 10655 10659 10662 10662 10661 10660 10659 10658 10657 10658 10659 10659 10661 10665 10669 10671 10673 10676 10678 10679 10680 10680 10681 10682 10683 10684 10684 10683 10682 10682 10683 10685 10687 10689 10691 10693 10694 10695 10695 10694 10694 10693 10691 10690 10690 10689 10688 10687 10686 10684 10682 10680 10679 10678 10675 10672
10420 10426 10432 10438 10446 10455 10465 10475 10484 10493 10504 10514 10524 10532 10535 10539 10548 10556 10562 10571 10579 10585 10591 10598 10605 10612 10621 10632 10638 10641 10645 10650 10653 10655 10653 10650 10650 10650 10651 10652 10653 10655 10657 10661 10665 10666 10668 10672 10674 10675 10675 10676 10677 10677 10678 10677 10676 10676 10677 10678 10681 10682 10683 10685 10687 10688 10689 10689 10689 10689 10688 10686 10686 10686 10685 10683 10682 10680 10679 10677 10676 10675 10674 10671 10668
10408 10414 10419 10426 10435 10444 10454 10464 10475 10485 10494 10503 10512 10519 10522 10529 10540 10548 10554 10563 10572 10580 10586 10592 10597 10602 10609 10618 10623 10626 10630 10634 10638 10644 10644 10642 10641 10642 10643 10646 10647 10650 10652 10654 10657 10660 10662 10665 10668 10670 10671 10671 10671 10672 10672 10671 10670 10670 10671 10673 10676 10677 10677 10679 10680 10681 10683 10683 10683 10682 10682 10682 10682 10681 10680 10679 10676 10674 10673 10672 10671 10671 10669 10667 10665
10398 10403 10409 10416 10424 10434 10443 10453 10463 10473 10483 10492 10500 10507 10511 10519 10530 10539 10547 10557 10566 10573 10578 10583 10588 10593 10599 10606 10610 10613 10619 10622 10626 10631 10635 10635 10635 10635 10637 10641 10643 10646 10649 10650 10651 10653 10656 10657 10660 10662 10663 10664 10666 10667 10667 10665 10664 10663 10665 10668 10670 10670 10671 10672 10673 10675 10676 10678 10678 10676 10675 10676 10677 10676 10674 10674 10672 10669 10669 10668 10666 10665 10664 10663 10661
10389 10393 10399 10405 10413 10422 10431 10441 10451 10461 10472 10481 10490 10497 10503 10510 10520 10530 10540 10549 10557 10563 10569 10574 10579 10584 10588 10593 10598 10604 10609 10612 10615 10619 10623 10628 10631 10631 10631 10635 10640 10643 10645 10645 10645 10646 10648 10650 10651 10653 10653 10655 10657 10658 10658 10657 10655 10655 10658 10661 10662 10663 10664 10665 10667 10668 10669 10670 10671 10670 10668 10669 10671 10670 10669 10668 10667 10665 10664 10663 10661 10660 10660 10659 10657
10381 10385 10390 10396 10403 10411 10420 10429 10440 10450 10461 10470 10479 10487 10492 10498 10506 10515 10525 10536 10545 10553 10562 10568 10571 10574 10577 10582 10589 10595 10599 10603 10608 10610 10611 10616 10624 10627 10627 10631 10637 10641 10641 10640 10640 10641 10641 10643 10645 10646 10646 10647 10648 10647 10647 10646 10646 10647 10650 10652 10654 10655 10656 10657 10659 10661 10662 10663 10664 10664 10662 10662 10664 10664 10663 10662 10661 10660 10660 10659 10655 10654 10656 10655 10653
10374 10378 10382 10388 10394 10402 10410 10420 10430 10440 10450 10459 10468 10476 10481 10486 10492 10499 10507 10519 10531 10541 10551 10558 10563 10566 10571 10577 10582 10586 10590 10594 10599 10602 10602 10604 10610 10615 10619 10625 10632 10636 10637 10636 10637 10639 10639 10639 10640 10640 10640 10641 10641 10639 10637 10636 10637 10640 10643 10645 10646 10648 10648 10648 10650 10653 10655 10657 10658 10657 10656 10655 10656 10657 10657 10656 10654 10653 10655 10654 10650 10650 10652 10651 10649
10368 10371 10375 10381 10387 10394 10402 10411 10421 10431 10440 10449 10458 10465 10470 10476 10481 10487 10496 10505 10515 10525 10535 10543 10550 10556 10563 10569 10573 10575 10579 10583 10588 10593 10595 10597 10600 10603 10607 10613 10620 10625 10626 10627 10631 10635 10637 10638 10637 10636 10636 10635 10634 10631 10629 10627 10628 10632 10637 10639 10640 10642 10641 10638 10640 10645 10647 10649 10651 10650 10650 10649 10648 10649 10650 10649 10646 10646 10648 10647 10644 10645 10647 10646 10643
10363 10366 10369 10374 10381 10388 10396 10405 10414 10423 10432 10440 10448 10455 10460 10465 10470 10477 10488 10496 10505 10515 10523 10529 10537 10546 10552 10557 10561 10565 10569 10574 10579 10584 10587 10588 10592 10594 10598 10604 10611 10615 10616 10618 10622 10626 10629 10632 10634 10634 10634 10634 10632 10627 10623 10620 10621 10626 10633 10636 10635 10634 10632 10629 10632 10637 10639 10641 10643 10643 10643 10642 10641 10641 10641 10640 10639 10638 10640 10641 10639 10639 10641 10640 10637
10359 10361 10365 10369 10375 10382 10391 10400 10409 10417 10425 10433 10440 10446 10452 10457 10461 10469 10480 10490 10499 10508 10513 10517 10525 10533 10538 10541 10547 10554 10560 10564 10569 10575 10578 10580 10582 10584 10589 10598 10605 10608 10609 10611 10615 10619 10621 10625 10627 10627 10629 10633 10634 10628 10619 10615 10618 10623 10629 10633 10631 10626 10622 10622 10625 10630 10632 10633 10633 10633 10636 10636 10633 10633 10633 10632 10631 10630 10631 10634 10634 10633 10634 10634 10631
10356 10358 10361 10366 10371 10378 10386 10395 10404 10413 10420 10427 10433 10439 10445 10451 10457 10464 10474 10483 10492 10500 10504 10506 10512 10518 10521 10526 10532 10541 10548 10552 10557 10563 10568 10571 10573 10575 10580 10589 10595 10598 10599 10601 10606 10610 10613 10615 10617 10619 10622 10626 10628 10626 10617 10612 10617 10622 10622 10622 10622 10618 10614 10616 10621 10625 10626 10625 10623 10625 10628 10628 10625 10625 10625 10624 10623 10623 10624 10626 10627 10627 10627 10627 10625
10355 10356 10359 10363 10368 10374 10381 10389 10398 10407 10416 10422 10428 10434 10440 10446 10453 10460 10468 10476 10484 10490 10496 10499 10501 10504 10509 10515 10521 10528 10535 10541 10546 10553 10558 10562 10565 10568 10573 10579 10583 10585 10587 10591 10597 10601 10603 10606 10609 10611 10613 10614 10617 10619 10615 10610 10614 10619 10615 10611 10612 10610 10607 10610 10617 10620 10620 10617 10616 10618 10620 10619 10616 10616 10616 10615 10615 10615 10617 10618 10618 10619 10619 10619 10618
10354 10355 10357 10360 10365 10371 10378 10385 10393 10401 10409 10416 10423 10429 10435 10442 10450 10457 10464 10470 10476 10482 10487 10489 10490 10493 10500 10508 10513 10519 10525 10531 10537 10543 10549 10553 10557 10561 10566 10571 10572 10573 10577 10583 10588 10591 10594 10599 10601 10601 10603 10605 10606 10610 10610 10604 10603 10606 10604 10599 10600 10601 10601 10603 10607 10609 10609 10608 10608 10611 10612 10611 10609 10608 10607 10606 10607 10607 10608 10609 10609 10608 10609 10610 10611
10354 10355 10356 10359 10363 10368 10374 10381 10389 10396 10403 10410 10416 10422 10429 10436 10444 10451 10458 10464 10469 10475 10480 10482 10484 10490 10497 10503 10507 10512 10519 10525 10529 10535 10540 10545 10548 10552 10556 10560 10560 10563 10569 10576 10580 10583 10586 10590 10592 10592 10594 10596 10594 10595 10596 10592 10590 10591 10590 10588 10588 10590 10592 10593 10593 10594 10597 10598 10599 10602 10604 10603 10602 10601 10599 10598 10599 10600 10599 10600 10600 10599 10599 10601 10602
10355 10355 10357 10359 10362 10366 10370 10376 10383 10391 10399 10405 10410 10415 10421 10428 10435 10443 10450 10457 10463 10468 10473 10475 10480 10487 10493 10497 10501 10506 10513 10517 10520 10526 10531 10535 10537 10540 10545 10548 10550 10553 10561 10567 10570 10572 10576 10578 10580 10581 10582 10582 10581 10580 10580 10578 10577 10578 10578 10578 10579 10580 10582 10583 10583 10584 10586 10588 10588 10591 10593 10592 10592 10592 10591 10589 10591 10592 10591 10591 10592 10591 10590 10591 10594
10356 10356 10357 10359 10362 10365 10368 10372 10377 10383 10391 10398 10405 10410 10415 10421 10427 10434 10442 10449 10455 10461 10465 10469 10474 10480 10485 10488 10492 10498 10504 10508 10511 10515 10520 10522 10524 10527 10531 10535 10538 10543 10551 10556 10558 10560 10563 10565 10568 10570 10571 10570 10569 10569 10569 10569 10571 10573 10572 10571 10571 10572 10573 10573 10574 10575 10576 10576 10577 10579 10580 10580 10582 10583 10582 10580 10581 10582 10582 10582 10584 10584 10581 10581 10585
10357 10357 10357 10358 10361 10364 10367 10371 10375 10378 10383 10389 10395 10403 10409 10416 10423 10429 10435 10441 10447 10452 10456 10460 10465 10472 10476 10479 10484 10491 10496 10498 10500 10503 10507 10510 10512 10514 10517 10522 10527 10533 10540 10545 10546 10548 10550 10552 10554 10556 10557 10556 10554 10554 10556 10557 10561 10566 10569 10568 10568 10569 10569 10569 10569 10568 10565 10562 10563 10565 10567 10568 10571 10572 10572 10571 10572 10572 10571 10572 10576 10577 10574 10573 10577
10357 10357 10356 10357 10359 10361 10364 10368 10371 10375 10379 10382 10387 10393 10399 10406 10415 10422 10428 10434 10439 10443 10447 10452 10458 10464 10469 10472 10477 10482 10484 10484 10486 10489 10494 10497 10499 10501 10505 10510 10516 10522 10528 10533 10535 10537 10538 10540 10541 10542 10542 10543 10542 10542 10544 10544 10546 10553 10558 10560 10560 10561 10562 10563 10563 10559 10553 10550 10552 10555 10556 10557 10559 10561 10562 10562 10563 10562 10561 10562 10566 10567 10567 10566 10569
10357 10356 10356 10357 10357 10359 10361 10363 10366 10370 10374 10378 10383 10388 10392 10398 10404 10411 10417 10423 10429 10434 10440 10446 10452 10458 10462 10465 10468 10472 10472 10472 10475 10479 10482 10486 10488 10490 10494 10500 10506 10511 10517 10521 10524 10526 10527 10529 10532 10533 10535 10537 10537 10536 10535 10534 10536 10540 10542 10543 10544 10544 10545 10546 10546 10543 10540 10541 10543 10544 10545 10546 10549 10550 10552 10553 10554 10553 10552 10553 10555 10556 10556 10558 10560
10355 10355 10356 10356 10357 10358 10359 10360 10363 10366 10370 10374 10378 10383 10388 10393 10398 10404 10409 10414 10420 10425 10431 10437 10444 10450 10455 10458 10460 10462 10463 10464 10466 10469 10473 10476 10478 10480 10485 10490 10495 10499 10504 10508 10511 10513 10515 10518 10521 10524 10528 10530 10530 10528 10525 10524 10525 10527 10528 10529 10530 10530 10529 10528 10528 10528 10529 10531 10533 10534 10535 10537 10539 10540 10541 10543 10544 10543 10542 10543 10544 10545 10546 10547 10549
10353 10353 10354 10355 10356 10357 10358 10358 10360 10363 10366 10369 10373 10377 10381 10386 10392 10397 10402 10407 10412 10416 10421 10428 10435 10442 10447 10450 10452 10453 10453 10454 10457 10460 10464 10467 10469 10471 10475 10479 10483 10486 10490 10494 10498 10500 10503 10507 10510 10513 10516 10518 10517 10516 10515 10515 10516 10518 10518 10518 10516 10514 10512 10511 10512 10516 10518 10520 10524 10526 10527 10528 10529 10529 10530 10531 10532 10532 10532 10532 10533 10534 10535 10536 10538
10350 10351 10352 10353 10354 10355 10356 10357 10358 10359 10362 10364 10368 10371 10375 10380 10384 10389 10394 10399 10403 10407 10412 10418 10425 10432 10436 10439 10442 10443 10443 10445 10448 10451 10454 10457 10460 10463 10465 10468 10471 10475 10478 10482 10486 10489 10493 10497 10500 10502 10504 10504 10504 10504 10504 10505 10507 10507 10506 10504 10501 10499 10498 10499 10502 10507 10510 10512 10515 10517 10517 10517 10517 10518 10518 10519 10521 10522 10522 10521 10522 10523 10525 10526 10528
10345 10347 10349 10351 10352 10353 10354 10355 10356 10357 10358 10360 10363 10366 10369 10373 10377 10381 10386 10390 10393 10397 10402 10407 10413 10419 10423 10426 10429 10431 10432 10435 10439 10442 10444 10446 10450 10453 10455 10457 10460 10463 10467 10470 10474 10478 10482 10486 10488 10489 10490 10490 10490 10491 10491 10492 10493 10493 10493 10492 10491 10490 10490 10492 10495 10498 10500 10502 10504 10505 10505 10505 10505 10506 10506 10507 10509 10510 10511 10511 10511 10512 10514 10516 10517
10341 10343 10345 10347 10348 10350 10351 10352 10353 10354 10355 10357 10358 10361 10363 10366 10370 10374 10378 10381 10384 10388 10393 10397 10402 10407 10411 10413 10416 10419 10422 10425 10429 10432 10434 10435 10438 10442 10445 10447 10448 10452 10455 10458 10461 10465 10469 10472 10473 10473 10474 10474 10475 10475 10476 10477 10478 10480 10481 10481 10481 10481 10481 10483 10485 10488 10489 10490 10491 10492 10493 10493 10494 10495 10496 10496 10497 10498 10499 10500 10500 10501 10503 10505 10506
10337 10339 10341 10342 10344 10345 10347 10348 10350 10351 10352 10354 10356 10357 10359 10362 10365 10368 10371 10374 10377 10380 10384 10388 10392 10396 10399 10402 10406 10409 10412 10415 10418 10421 10423 10425 10427 10430 10433 10435 10437 10439 10442 10445 10448 10452 10455 10458 10460 10460 10460 10461 10462 10461 10462 10464 10466 10468 10470 10471 10471 10471 10470 10471 10473 10475 10477 10478 10479 10480 10481 10482 10482 10483 10484 10485 10486 10486 10487 10488 10488 10490 10491 10493 10494
10333 10335 10337 10338 10339 10341 10342 10344 10346 10347 10348 10350 10352 10354 10356 10359 10362 10364 10366 10369 10371 10374 10377 10380 10384 10387 10390 10393 10396 10399 10402 10405 10408 10410 10413 10415 10417 10419 10422 10424 10425 10426 10429 10431 10435 10438 10441 10444 10446 10447 10447 10448 10449 10449 10449 10451 10453 10455 10456 10458 10459 10460 10459 10459 10460 10463 10466 10467 10469 10470 10470 10471 10471 10471 10472 10473 10474 10475 10475 10476 10476 10477 10479 10480 10482
10328 10329 10332 10334 10335 10336 10337 10339 10341 10342 10343 10345 10347 10349 10351 10354 10357 10359 10361 10364 10366 10368 10370 10373 10375 10378 10381 10384 10386 10389 10392 10394 10397 10399 10402 10404 10407 10409 10411 10412 10413 10414 10416 10419 10421 10424 10426 10429 10432 10433 10434 10435 10436 10436 10437 10438 10439 10440 10442 10443 10445 10447 10448 10448 10449 10451 10453 10455 10457 10459 10459 10459 10459 10459 10460 10461 10462 10463 10464 10465 10465 10466 10467 10467 10469
10324 10324 10326 10328 10330 10332 10332 10334 10335 10336 10338 10340 10342 10344 10345 10347 10350 10352 10354 10357 10359 10361 10363 10365 10367 10369 10372 10374 10375 10378 10381 10383 10386 10389 10391 10393 10395 10397 10399 10401 10402 10403 10404 10406 10408 10410 10412 10415 10417 10419 10421 10422 10422 10423 10423 10424 10425 10425 10426 10428 10429 10431 10433 10435 10436 10438 10440 10441 10443 10445 10446 10447 10447 10447 10448 10449 10451 10452 10453 10454 10455 10456 10456 10456 10457
10320 10320 10320 10322 10324 10326 10327 10328 10330 10331 10332 10334 10335 10338 10339 10341 10342 10344 10346 10348 10351 10353 10355 10357 10358 10360 10362 10363 10365 10367 10369 10372 10374 10377 10379 10381 10383 10385 10387 10389 10390 10391 10392 10394 10396 10397 10399 10401 10403 10405 10407 10408 10409 10409 10410 10410 10411 10411 10412 10412 10414 10415 10418 10420 10422 10423 10425 10427 10428 10430 10432 10433 10434 10434 10435 10437 10439 10441 10443 10444 10444 10445 10446 10446 10446
10316 10316 10316 10316 10317 10319 10321 10322 10323 10325 10326 10328 10329 10331 10333 10334 10336 10337 10339 10340 10342 10344 10346 10348 10349 10351 10353 10354 10355 10356 10358 10359 10361 10364 10366 10368 10370 10372 10374 10376 10378 10379 10380 10381 10382 10383 10385 10386 10388 10390 10392 10393 10394 10395 10396 10396 10397 10398 10398 10399 10400 10401 10402 10404 10406 10408 10410 10412 10413 10415 10417 10418 10419 10421 10422 10424 10427 10429 10430 10431 10432 10433 10434 10434 10435
10311 10311 10311 10311 10311 10312 10314 10315 10316 10318 10319 10321 10323 10324 10326 10327 10329 10331 10332 10333 10335 10337 10338 10340 10341 10342 10344 10345 10346 10347 10348 10349 10350 10352 10353 10355 10357 10359 10361 10363 10364 10366 10367 10368 10369 10370 10371 10372 10373 10375 10377 10379 10380 10381 10382 10382 10383 10385 10386 10386 10387 10387 10388 10389 10391 10392 10394 10396 10398 10399 10401 10403 10404 10406 10408 10410 10412 10414 10416 10417 10418 10419 10420 10421 10422
10306 10306 10306 10306 10306 10307 10307 10308 10309 10311 10312 10314 10316 10317 10318 10320 10322 10323 10325 10326 10327 10329 10330 10332 10333 10334 10335 10337 10337 10338 10339 10339 10340 10341 10343 10344 10345 10346 10347 10348 10350 10351 10353 10354 10356 10357 10357 10358 10359 10360 10362 10363 10365 10366 10367 10367 10368 10370 10371 10372 10373 10373 10374 10374 10375 10377 10378 10380 10381 10382 10384 10386 10387 10389 10391 10393 10396 10398 10400 10401 10403 10404 10405 10406 10407
10300 10301 10301 10301 10301 10301 10301 10302 10303 10304 10305 10306 10307 10309 10311 10313 10314 10316 10317 10318 10319 10321 10322 10324 10325 10326 10327 10328 10329 10330 10330 10331 10331 10332 10332 10333 10334 10334 10335 10335 10336 10337 10338 10339 10340 10341 10342 10342 10343 10344 10345 10346 10347 10348 10349 10350 10351 10353 10354 10356 10357 10358 10359 10359 10360 10361 10362 10363 10364 10365 10367 10369 10370 10372 10374 10377 10379 10381 10383 10385 10387 10388 10389 10390 10391
10295 10296 10296 10296 10296 10296 10296 10296 10296 10297 10298 10299 10300 10301 10303 10304 10306 10308 10309 10310 10311 10312 10314 10315 10316 10317 10318 10319 10320 10321 10321 10322 10322 10322 10322 10323 10323 10323 10323 10323 10323 10323 10324 10324 10324 10325 10325 10326 10326 10327 10327 10328 10329 10331 10332 10333 10334 10335 10337 10338 10340 10341 10342 10343 10344 10345 10345 10346 10348 10349 10351 10353 10355 10356 10358 10360 10363 10365 10367 10369 10371 10372 10373 10374 10376
10291 10291 10291 10291 10291 10291 10291 10291 10291 10291 10291 10292 10293 10293 10294 10296 10297 10298 10300 10301 10303 10304 10305 10306 10308 10309 10309 10310 10311 10312 10312 10313 10313 10313 10313 10313 10313 10313 10313 10313 10313 10312 10312 10312 10311 10311 10311 10311 10311 10312 10312 10313 10313 10314 10315 10316 10317 10319 10320 10322 10323 10324 10325 10327 10328 10329 10329 10330 10332 10333 10335 10337 10340 10342 10344 10345 10347 10349 10350 10352 10354 10356 10357 10358 10359
10287 10287 10287 10286 10286 10286 10286 10286 10286 10286 10285 10286 10286 10286 10287 10288 10288 10289 10290 10291 10293 10295 10296 10298 10299 10300 10301 10301 10302 10302 10303 10304 10304 10304 10304 10304 10304 10303 10303 10303 10302 10302 10301 10301 10300 10300 10300 10299 10299 10299 10299 10299 10299 10300 10300 10301 10302 10303 10304 10305 10307 10308 10309 10310 10311 10312 10314 10315 10316 10318 10320 10322 10324 10326 10328 10329 10330 10332 10333 10335 10337 10339 10341 10342 10344
10284 10283 10282 10282 10282 10282 10281 10281 10281 10281 10280 10280 10280 10280 10280 10280 10281 10281 10282 10282 10283 10284 10286 10287 10288 10289 10290 10291 10292 10293 10294 10294 10295 10295 10295 10295 10295 10294 10294 10293 10293 10292 10292 10291 10290 10290 10289 10289 10288 10288 10287 10287 10287 10287 10287 10288 10288 10289 10290 10290 10291 10292 10293 10294 10295 10296 10298 10299 10301 10302 10304 10306 10308 10310 10311 10312 10314 10315 10317 10318 10320 10323 10324 10326 10328
10279 10279 10278 10278 10277 10277 10276 10276 10276 10275 10275 10275 10275 10274 10274 10274 10274 10274 10275 10275 10275 10275 10276 10277 10278 10278 10279 10280 10281 10282 10282 10283 10284 10284 10284 10284 10284 10284 10284 10284 10283 10283 10282 10281 10281 10280 10279 10279 10278 10278 10277 10277 10276 10276 10276 10276 10276 10276 10277 10277 10278 10279 10280 10280 10281 10282 10283 10285 10286 10288 10289 10291 10293 10294 10295 10297 10298 10300 10301 10303 10305 10307 10308 10310 10312
10275 10274 10274 10273 10273 10272 10272 10271 10271 10270 10270 10270 10269 10269 10269 10269 10268 10268 10268 10268 10268 10268 10268 10268 10268 10269 10269 10269 10270 10270 10271 10271 10272 10272 10273 10273 10273 10273 10273 10272 10272 10272 10272 10271 10271 10270 10269 10269 10268 10268 10267 10267 10267 10266 10266 10266 10266 10266 10266 10266 10266 10267 10268 10268 10269 10269 10270 10271 10273 10274 10275 10277 10278 10280 10281 10282 10284 10285 10287 10288 10290 10291 10293 10295 10296
10270 10270 10269 10268 10268 10268 10267 10267 10266 10265 10265 10264 10264 10263 10263 10263 10262 10262 10262 10262 10261 10261 10261 10260 10260 10260 10260 10260 10260 10261 10261 10261 10261 10261 10261 10261 10261 10261 10261 10261 10261 10260 10260 10260 10260 10259 10259 10258 10258 10258 10257 10257 10257 10256 10256 10256 10255 10255 10255 10256 10256 10256 10257 10257 10258 10258 10259 10259 10260 10262 10263 10264 10265 10266 10267 10269 10270 10271 10273 10274 10275 10277 10278 10280 10280
10265 10264 10263 10263 10262 10262 10261 10261 10261 10260 10260 10259 10258 10258 10257 10257 10256 10256 10256 10255 10255 10254 10254 10253 10253 10252 10252 10252 10252 10251 10251 10251 10251 10251 10251 10251 10250 10250 10250 10250 10249 10249 10249 10248 10248 10248 10248 10247 10247 10247 10247 10246 10246 10246 10246 10245 10245 10245 10245 10245 10245 10246 10246 10247 10247 10247 10248 10248 10249 10250 10251 10252 10253 10254 10255 10256 10257 10258 10259 10260 10261 10263 10264 10265 10266